The Dalles, WA

4:54 PM PDT on April 26, 2017 (GMT -0700)
Columbia Gorge Regional-The Dalles

Weather History for KDLS - July, 2013

Change the Weather History Date:

Tuesday, July 2, 2013

  Actual Average Record
Temperature  
Mean Temperature 86 °F -  
Max Temperature 102 °F 82 °F 106 °F (2015)
Min Temperature 73 °F 56 °F 42 °F (1954)
Cooling Degree Days 21    
Growing Degree Days 36 (Base 50)    
Moisture  
Dew Point 59 °F    
Average Humidity 42    
Maximum Humidity 68    
Minimum Humidity 24    
Precipitation  
Precipitation 0.00 in - - ()
Sea Level Pressure  
Sea Level Pressure 29.91 in    
Wind  
Wind Speed 15 mph (NW)    
Max Wind Speed 24 mph    
Max Gust Speed 39 mph    
Visibility 10 miles    
Events      
Averages and records for this station are not official NWS values.
T = Trace of Precipitation, MM = Missing Value Source: NWS Daily Summary

Daily Weather History Graph

Daily Weather History Graph

Search for Another Location

Airport or City:

Trip Planner

Search our weather history database for the weather conditions in past years. The results will help you decide how hot, cold, wet, or windy it might be!

Date:

Astronomy

Jul. 02, 2013 Rise Set
Actual Time 5:20 AM PDT 8:57 PM PDT
Civil Twilight 4:42 AM PDT 9:34 PM PDT
Nautical Twilight 3:52 AM PDT 10:25 PM PDT
Astronomical Twilight 2:44 AM PDT 11:32 PM PDT
Moon 1:34 AM PDT (7/2) 4:09 PM PDT (7/2)
Length of Visible Light 16h 52m
Length of Day
15h 37m
Waning Crescent, 25% of the Moon is Illuminated
Jul 2
Waning Crescent
Jul 8
New
Jul 15
First Quarter
Jul 22
Full
Jul 29
Last Quarter

Hourly Weather History & Observations

Time (PDT) Temp. Heat Index Dew Point Humidity Pressure Visibility Wind Dir Wind Speed Gust Speed Precip Events Conditions
12:53 AM 81.0 °F 82.5 °F 64.0 °F 56% 29.91 in 10.0 mi NW 12.7 mph - N/A   Clear
1:53 AM 79.0 °F - 63.0 °F 58% 29.92 in 10.0 mi NW 11.5 mph - N/A   Clear
2:53 AM 78.1 °F - 63.0 °F 60% 29.93 in 10.0 mi WNW 12.7 mph - N/A   Clear
3:53 AM 77.0 °F - 63.0 °F 62% 29.93 in 10.0 mi NW 13.8 mph 21.9 mph N/A   Clear
4:53 AM 75.9 °F - 63.0 °F 64% 29.94 in 10.0 mi NW 17.3 mph 21.9 mph N/A   Clear
5:53 AM 73.9 °F - 63.0 °F 68% 29.95 in 10.0 mi NNW 19.6 mph 23.0 mph N/A   Clear
7:53 AM 75.9 °F - 63.0 °F 64% 29.96 in 10.0 mi NNW 17.3 mph 29.9 mph N/A   Clear
8:53 AM 80.1 °F 81.9 °F 64.9 °F 60% 29.96 in 10.0 mi NW 12.7 mph 17.3 mph N/A   Clear
9:53 AM 84.9 °F 86.6 °F 64.9 °F 51% 29.94 in 10.0 mi NW 16.1 mph - N/A   Clear
10:53 AM 89.1 °F 91.0 °F 64.9 °F 45% 29.94 in 10.0 mi NW 15.0 mph 25.3 mph N/A   Clear
11:53 AM 91.9 °F 92.9 °F 63.0 °F 38% 29.92 in 10.0 mi NNW 19.6 mph 25.3 mph N/A   Clear
12:53 PM 96.1 °F 96.0 °F 60.1 °F 30% 29.91 in 10.0 mi NNW 19.6 mph - N/A   Clear
1:53 PM 97.0 °F 96.9 °F 60.1 °F 29% 29.89 in 10.0 mi NNW 16.1 mph - N/A   Clear
2:53 PM 98.1 °F 97.2 °F 57.9 °F 26% 29.88 in 10.0 mi NW 17.3 mph - N/A   Clear
3:53 PM 99.0 °F 98.1 °F 57.0 °F 25% 29.87 in 10.0 mi NNW 13.8 mph 20.7 mph N/A   Clear
4:32 PM 98.6 °F 97.6 °F 57.2 °F 25% 29.87 in 10.0 mi NW 16.1 mph 24.2 mph N/A   Partly Cloudy
4:53 PM 98.1 °F 96.8 °F 57.0 °F 25% 29.86 in 10.0 mi WNW 15.0 mph 23.0 mph N/A   Clear
5:53 PM 95.0 °F 93.0 °F 55.0 °F 26% 29.86 in 10.0 mi NW 21.9 mph 31.1 mph N/A   Clear
6:53 PM 91.9 °F 89.5 °F 53.1 °F 27% 29.86 in 10.0 mi WNW 17.3 mph 28.8 mph N/A   Clear
7:30 PM 91.4 °F - 51.8 °F 26% 29.88 in 10.0 mi West 24.2 mph 39.1 mph N/A   Partly Cloudy
7:53 PM 90.0 °F - 48.9 °F 24% 29.88 in 10.0 mi West 18.4 mph 28.8 mph N/A   Partly Cloudy
8:53 PM 86.0 °F - 51.1 °F 30% 29.90 in 10.0 mi West 18.4 mph - N/A   Clear
9:53 PM 82.9 °F 82.0 °F 55.0 °F 38% 29.93 in 10.0 mi West 16.1 mph - N/A   Clear
10:53 PM 79.0 °F - 57.0 °F 47% 29.95 in 10.0 mi NNW 13.8 mph - N/A   Clear
11:53 PM 78.1 °F - 57.0 °F 48% 29.96 in 10.0 mi WNW 15.0 mph - N/A   Clear